Voltar ao catálogo

EGYPTSAT 2

AtivoCiênciaLEO
NORAD 39678·PAYLOAD·🇪🇬 Egypt

Lançado Apr 16, 2014 de Baikonur Cosmodrome

Loading…

Próximas Passagens (próximas 24 horas)

TLE

AtualizadoSource: Space-Track

Época: Sep 14, 2026, 09:14 UTC

1 39678U 14021A   26257.38483379  .00000032  00000-0  47952-4 0  9994
2 39678  51.6171 149.6263 0000571 122.2526 237.8477 14.56099240656218

Acompanhe EGYPTSAT 2 em tempo real com AllMySat

Download on the App Store